| time (UTC) | temp F | wind direction | speed MPH | gust MPH | rain 1hr in | rain 24hr in | rain mn in | humidity % | barometer mb |
| 20260506061724 | 53 | 18 | 7.0 | 10.0 | 0.00 | 0.00 | 0.00 | 80 | 1025.6 |
| 20260506061550 | 53 | 11 | 8.0 | 10.0 | 0.00 | 0.00 | 0.00 | 80 | 1025.7 |
| 20260506060723 | 53 | 30 | 7.0 | 10.0 | 0.00 | 0.00 | 0.00 | 80 | 1025.6 |
| 20260506060544 | 53 | 17 | 8.0 | 11.0 | 0.00 | 0.00 | 0.00 | 80 | 1025.6 |
| 20260506051208 | 55 | 14 | 7.0 | 9.0 | 0.00 | 0.00 | 0.00 | 79 | 1026.0 |
| 20260506050706 | 55 | 20 | 7.0 | 9.0 | 0.00 | 0.00 | 0.00 | 79 | 1026.0 |
| 20260506050525 | 55 | 21 | 7.0 | 9.0 | 0.00 | 0.00 | 0.00 | 79 | 1026.2 |
| 20260506044701 | 54 | 20 | 8.0 | 9.0 | 0.00 | 0.00 | 0.00 | 79 | 1026.4 |
| 20260506044518 | 54 | 24 | 7.0 | 9.0 | 0.00 | 0.00 | 0.00 | 79 | 1026.4 |
| 20260506043655 | 54 | 15 | 6.0 | 9.0 | 0.00 | 0.00 | 0.00 | 79 | 1026.4 |
| 20260506043511 | 54 | 27 | 7.0 | 9.0 | 0.00 | 0.00 | 0.00 | 80 | 1026.5 |
| 20260506042653 | 54 | 30 | 7.0 | 9.0 | 0.00 | 0.00 | 0.00 | 80 | 1026.5 |
| 20260506042152 | 54 | 25 | 6.0 | 9.0 | 0.00 | 0.00 | 0.00 | 80 | 1026.6 |
| 20260506041651 | 54 | 20 | 6.0 | 9.0 | 0.00 | 0.00 | 0.00 | 80 | 1026.7 |
| 20260506041143 | 54 | 20 | 6.0 | 9.0 | 0.00 | 0.00 | 0.00 | 80 | 1026.7 |
| 20260506040741 | 54 | 30 | 6.0 | 9.0 | 0.00 | 0.00 | 0.00 | 80 | 1026.8 |
| 20260506035635 | 54 | 28 | 6.0 | 10.0 | 0.00 | 0.00 | 0.00 | 80 | 1026.9 |
| 20260506035135 | 54 | 20 | 8.0 | 11.0 | 0.00 | 0.00 | 0.00 | 81 | 1026.9 |
| 20260506034640 | 53 | 11 | 9.0 | 11.0 | 0.00 | 0.00 | 0.00 | 81 | 1026.9 |
| 20260506034137 | 53 | 20 | 9.0 | 10.0 | 0.00 | 0.00 | 0.00 | 80 | 1026.8 |
| 20260506033635 | 53 | 18 | 9.0 | 10.0 | 0.00 | 0.00 | 0.00 | 80 | 1026.8 |
| 20260506033135 | 53 | 359 | 7.0 | 10.0 | 0.00 | 0.00 | 0.00 | 80 | 1026.7 |
| 20260506032635 | 54 | 357 | 6.0 | 9.0 | 0.00 | 0.00 | 0.00 | 79 | 1026.7 |
| 20260506032136 | 54 | 357 | 7.0 | 9.0 | 0.00 | 0.00 | 0.00 | 79 | 1026.7 |
| 20260506031634 | 54 | 10 | 6.0 | 10.0 | 0.00 | 0.00 | 0.00 | 79 | 1026.8 |
| 20260506031135 | 54 | 8 | 7.0 | 10.0 | 0.00 | 0.00 | 0.00 | 79 | 1026.8 |
| 20260506030635 | 54 | 15 | 9.0 | 10.0 | 0.00 | 0.00 | 0.00 | 79 | 1026.9 |
| 20260506030133 | 54 | 11 | 8.0 | 10.0 | 0.00 | 0.00 | 0.00 | 80 | 1027.0 |
| 20260506025633 | 54 | 15 | 8.0 | 10.0 | 0.00 | 0.00 | 0.00 | 80 | 1027.1 |
| 20260506025130 | 54 | 17 | 9.0 | 10.0 | 0.00 | 0.00 | 0.00 | 80 | 1027.2 |
| 20260506024629 | 54 | 21 | 8.0 | 10.0 | 0.00 | 0.00 | 0.00 | 81 | 1027.2 |
| 20260506024128 | 54 | 27 | 7.0 | 10.0 | 0.00 | 0.00 | 0.00 | 81 | 1027.3 |
| 20260506023625 | 54 | 27 | 8.0 | 10.0 | 0.00 | 0.00 | 0.00 | 81 | 1027.3 |
| 20260506023122 | 54 | 27 | 8.0 | 11.0 | 0.00 | 0.00 | 0.00 | 81 | 1027.5 |
| 20260506022621 | 54 | 20 | 9.0 | 11.0 | 0.00 | 0.00 | 0.00 | 81 | 1027.4 |
| 20260506022120 | 54 | 20 | 9.0 | 11.0 | 0.00 | 0.00 | 0.00 | 81 | 1027.4 |
| 20260506021959 | 54 | 20 | 10.0 | 11.0 | 0.00 | 0.00 | 0.00 | 81 | 1027.3 |
| 20260506021114 | 54 | 13 | 9.0 | 11.0 | 0.00 | 0.00 | 0.00 | 81 | 1027.3 |
| 20260506020637 | 53 | 17 | 9.0 | 11.0 | 0.00 | 0.00 | 0.00 | 81 | 1027.2 |
| 20260506020620 | 53 | 20 | 9.0 | 11.0 | 0.00 | 0.00 | 0.00 | 81 | 1027.3 |
| 20260506015107 | 53 | 23 | 9.0 | 10.0 | 0.00 | 0.00 | 0.00 | 81 | 1027.3 |
| 20260506014610 | 53 | 23 | 9.0 | 11.0 | 0.00 | 0.00 | 0.00 | 81 | 1027.3 |
| 20260506014108 | 53 | 13 | 9.0 | 11.0 | 0.00 | 0.00 | 0.00 | 81 | 1027.4 |
| 20260506013619 | 54 | 21 | 10.0 | 11.0 | 0.00 | 0.00 | 0.00 | 81 | 1027.4 |
| 20260506013421 | 54 | 18 | 9.0 | 11.0 | 0.00 | 0.00 | 0.00 | 80 | 1027.4 |
| 20260506012609 | 54 | 4 | 7.0 | 10.0 | 0.00 | 0.00 | 0.00 | 80 | 1027.4 |
| 20260506012104 | 54 | 359 | 9.0 | 10.0 | 0.00 | 0.00 | 0.00 | 80 | 1027.4 |
| 20260506011605 | 54 | 6 | 8.0 | 10.0 | 0.00 | 0.00 | 0.00 | 80 | 1027.3 |
| 20260506011105 | 54 | 8 | 8.0 | 10.0 | 0.00 | 0.00 | 0.00 | 80 | 1027.3 |
| 20260506010605 | 54 | 15 | 7.0 | 10.0 | 0.00 | 0.00 | 0.00 | 80 | 1027.4 |
| 20260506010457 | 54 | 4 | 6.0 | 11.0 | 0.00 | 0.00 | 0.00 | 80 | 1027.4 |
| 20260506005602 | 54 | 4 | 7.0 | 11.0 | 0.00 | 0.00 | 0.00 | 80 | 1027.4 |
| 20260506005054 | 54 | 13 | 8.0 | 10.0 | 0.00 | 0.00 | 0.00 | 80 | 1027.3 |
| 20260506004553 | 55 | 18 | 7.0 | 9.0 | 0.00 | 0.00 | 0.00 | 79 | 1027.5 |
| 20260506004051 | 55 | 1 | 5.0 | 9.0 | 0.00 | 0.00 | 0.00 | 80 | 1027.7 |
| 20260506003549 | 55 | 4 | 6.0 | 9.0 | 0.00 | 0.00 | 0.00 | 80 | 1027.7 |
| 20260506003048 | 55 | 24 | 6.0 | 9.0 | 0.00 | 0.00 | 0.00 | 80 | 1027.7 |
| 20260506002547 | 55 | 359 | 6.0 | 9.0 | 0.00 | 0.00 | 0.00 | 80 | 1027.7 |
| 20260506002041 | 55 | 13 | 6.0 | 10.0 | 0.00 | 0.00 | 0.00 | 80 | 1027.7 |
| 20260506001541 | 55 | 4 | 8.0 | 10.0 | 0.00 | 0.00 | 0.00 | 79 | 1027.8 |
| 20260506001038 | 55 | 23 | 9.0 | 10.0 | 0.00 | 0.00 | 0.00 | 79 | 1027.8 |
| 20260506000855 | 55 | 11 | 8.0 | 10.0 | 0.00 | 0.00 | 0.00 | 78 | 1028.0 |
| 20260506000038 | 56 | 14 | 6.0 | 7.0 | 0.00 | 0.00 | 0.00 | 78 | 1028.0 |
| 20260505235539 | 56 | 4 | 6.0 | 7.0 | 0.00 | 0.00 | 0.00 | 78 | 1028.1 |
| 20260505235355 | 56 | 10 | 6.0 | 9.0 | 0.00 | 0.00 | 0.00 | 77 | 1028.1 |
| 20260505234535 | 56 | 23 | 6.0 | 9.0 | 0.00 | 0.00 | 0.00 | 77 | 1028.1 |
| 20260505234033 | 56 | 23 | 6.0 | 9.0 | 0.00 | 0.00 | 0.00 | 77 | 1028.1 |
| 20260505233533 | 57 | 30 | 6.0 | 9.0 | 0.00 | 0.00 | 0.00 | 76 | 1028.2 |
| 20260505233031 | 57 | 30 | 6.0 | 9.0 | 0.00 | 0.00 | 0.00 | 76 | 1028.4 |
| 20260505232533 | 57 | 30 | 6.0 | 9.0 | 0.00 | 0.00 | 0.00 | 76 | 1028.4 |
| 20260505232026 | 57 | 27 | 6.0 | 7.0 | 0.00 | 0.00 | 0.00 | 76 | 1028.4 |
| 20260505231519 | 57 | 30 | 5.0 | 7.0 | 0.00 | 0.00 | 0.00 | 76 | 1028.5 |
| 20260505231018 | 57 | 30 | 5.0 | 9.0 | 0.00 | 0.00 | 0.00 | 76 | 1028.6 |
| 20260505230830 | 58 | 34 | 7.0 | 10.0 | 0.00 | 0.00 | 0.00 | 76 | 1028.5 |
| 20260505230016 | 58 | 40 | 7.0 | 10.0 | 0.00 | 0.00 | 0.00 | 76 | 1028.6 |
| 20260505225513 | 57 | 30 | 6.0 | 9.0 | 0.00 | 0.00 | 0.00 | 76 | 1028.6 |
| 20260505225327 | 58 | 30 | 5.0 | 7.0 | 0.00 | 0.00 | 0.00 | 76 | 1028.7 |
| 20260505224828 | 58 | 30 | 4.0 | 7.0 | 0.00 | 0.00 | 0.00 | 76 | 1028.7 |
| 20260505224007 | 58 | 30 | 6.0 | 9.0 | 0.00 | 0.00 | 0.00 | 76 | 1028.7 |
| 20260505223506 | 58 | 23 | 6.0 | 10.0 | 0.00 | 0.00 | 0.00 | 76 | 1028.6 |
| 20260505223327 | 58 | 28 | 6.0 | 10.0 | 0.00 | 0.00 | 0.00 | 76 | 1028.7 |
| 20260505222506 | 58 | 30 | 5.0 | 9.0 | 0.00 | 0.00 | 0.00 | 77 | 1028.7 |
| 20260505222003 | 57 | 30 | 6.0 | 9.0 | 0.00 | 0.00 | 0.00 | 78 | 1028.8 |
| 20260505221501 | 57 | 25 | 6.0 | 7.0 | 0.00 | 0.00 | 0.00 | 78 | 1028.8 |
| 20260505221327 | 57 | 25 | 6.0 | 7.0 | 0.00 | 0.00 | 0.00 | 78 | 1028.9 |
| 20260505220819 | 57 | 20 | 6.0 | 7.0 | 0.00 | 0.00 | 0.00 | 78 | 1028.7 |
| 20260505215955 | 57 | 17 | 6.0 | 7.0 | 0.00 | 0.00 | 0.00 | 78 | 1028.7 |
| 20260505215449 | 57 | 21 | 6.0 | 9.0 | 0.00 | 0.00 | 0.00 | 78 | 1028.6 |
| 20260505214951 | 57 | 17 | 6.0 | 10.0 | 0.00 | 0.00 | 0.00 | 77 | 1028.4 |
| 20260505214446 | 57 | 15 | 6.0 | 11.0 | 0.00 | 0.00 | 0.00 | 77 | 1028.3 |
| 20260505213935 | 58 | 25 | 6.0 | 11.0 | 0.00 | 0.00 | 0.00 | 76 | 1028.2 |
| 20260505213436 | 58 | 36 | 6.0 | 10.0 | 0.00 | 0.00 | 0.00 | 77 | 1028.1 |
| 20260505212935 | 58 | 34 | 7.0 | 10.0 | 0.00 | 0.00 | 0.00 | 77 | 1028.1 |
| 20260505212432 | 58 | 30 | 8.0 | 10.0 | 0.00 | 0.00 | 0.00 | 78 | 1028.1 |
| 20260505211934 | 58 | 30 | 7.0 | 11.0 | 0.00 | 0.00 | 0.00 | 78 | 1028.1 |
| 20260505211749 | 58 | 30 | 7.0 | 11.0 | 0.00 | 0.00 | 0.00 | 78 | 1028.1 |
| 20260505210934 | 58 | 30 | 5.0 | 11.0 | 0.00 | 0.00 | 0.00 | 79 | 1028.0 |
| 20260505210435 | 58 | 25 | 6.0 | 10.0 | 0.00 | 0.00 | 0.00 | 79 | 1028.2 |
| 20260505210253 | 58 | 30 | 6.0 | 10.0 | 0.00 | 0.00 | 0.00 | 79 | 1028.2 |
| 20260505205433 | 58 | 21 | 6.0 | 9.0 | 0.00 | 0.00 | 0.00 | 79 | 1028.3 |
| 20260505205243 | 58 | 24 | 4.0 | 9.0 | 0.00 | 0.00 | 0.00 | 78 | 1028.4 |
| 20260505204747 | 58 | 30 | 5.0 | 9.0 | 0.00 | 0.00 | 0.00 | 78 | 1028.4 |
| 20260505203928 | 58 | 30 | 6.0 | 11.0 | 0.00 | 0.00 | 0.00 | 78 | 1028.3 |
| 20260505203428 | 58 | 30 | 6.0 | 11.0 | 0.00 | 0.00 | 0.00 | 78 | 1028.3 |
| 20260505203242 | 58 | 30 | 7.0 | 10.0 | 0.00 | 0.00 | 0.00 | 78 | 1028.4 |
| 20260505202425 | 59 | 31 | 5.0 | 9.0 | 0.00 | 0.00 | 0.00 | 78 | 1028.5 |
| 20260505201921 | 59 | 25 | 6.0 | 10.0 | 0.00 | 0.00 | 0.00 | 77 | 1028.5 |
| 20260505201421 | 59 | 30 | 7.0 | 10.0 | 0.00 | 0.00 | 0.00 | 77 | 1028.3 |
| 20260505200917 | 59 | 46 | 7.0 | 10.0 | 0.00 | 0.00 | 0.00 | 77 | 1028.2 |
| 20260505200414 | 59 | 24 | 6.0 | 10.0 | 0.00 | 0.00 | 0.00 | 77 | 1028.1 |
| 20260505200232 | 59 | 51 | 6.0 | 12.0 | 0.00 | 0.00 | 0.00 | 76 | 1028.1 |
| 20260505195727 | 59 | 30 | 8.0 | 12.0 | 0.00 | 0.00 | 0.00 | 76 | 1028.0 |
| 20260505194907 | 60 | 30 | 9.0 | 12.0 | 0.00 | 0.00 | 0.00 | 76 | 1028.0 |
| 20260505194408 | 60 | 30 | 7.0 | 13.0 | 0.00 | 0.00 | 0.00 | 76 | 1028.0 |
| 20260505193907 | 60 | 30 | 9.0 | 13.0 | 0.00 | 0.00 | 0.00 | 76 | 1028.0 |
| 20260505193407 | 60 | 47 | 9.0 | 14.0 | 0.00 | 0.00 | 0.00 | 76 | 1028.1 |
| 20260505192909 | 60 | 30 | 11.0 | 14.0 | 0.00 | 0.00 | 0.00 | 75 | 1028.1 |
| 20260505192406 | 60 | 55 | 10.0 | 13.0 | 0.00 | 0.00 | 0.00 | 75 | 1028.1 |
| 20260505191905 | 60 | 30 | 10.0 | 14.0 | 0.00 | 0.00 | 0.00 | 75 | 1028.1 |
| 20260505191404 | 60 | 31 | 11.0 | 14.0 | 0.00 | 0.00 | 0.00 | 75 | 1028.2 |
| 20260505190904 | 60 | 38 | 9.0 | 16.0 | 0.00 | 0.00 | 0.00 | 75 | 1028.3 |
| 20260505190401 | 60 | 46 | 12.0 | 16.0 | 0.00 | 0.00 | 0.00 | 75 | 1028.3 |
| 20260505185900 | 60 | 54 | 9.0 | 17.0 | 0.00 | 0.00 | 0.00 | 74 | 1028.3 |
| 20260505185359 | 61 | 37 | 10.0 | 17.0 | 0.00 | 0.00 | 0.00 | 74 | 1028.3 |
| 20260505184855 | 61 | 30 | 12.0 | 16.0 | 0.00 | 0.00 | 0.00 | 74 | 1028.2 |
| 20260505184353 | 61 | 18 | 13.0 | 17.0 | 0.00 | 0.00 | 0.00 | 74 | 1028.1 |
| 20260505183853 | 61 | 41 | 13.0 | 17.0 | 0.00 | 0.00 | 0.00 | 73 | 1028.1 |
| 20260505183349 | 61 | 36 | 11.0 | 16.0 | 0.00 | 0.00 | 0.00 | 73 | 1028.1 |
| 20260505182849 | 61 | 69 | 12.0 | 18.0 | 0.00 | 0.00 | 0.00 | 73 | 1028.1 |
| 20260505182344 | 61 | 50 | 13.0 | 18.0 | 0.00 | 0.00 | 0.00 | 72 | 1028.3 |
| 20260505181842 | 61 | 38 | 11.0 | 18.0 | 0.00 | 0.00 | 0.00 | 72 | 1028.2 |
| 20260505181343 | 61 | 34 | 13.0 | 18.0 | 0.00 | 0.00 | 0.00 | 72 | 1028.2 |
| 20260505180841 | 61 | 30 | 12.0 | 18.0 | 0.00 | 0.00 | 0.00 | 71 | 1028.1 |
| 20260505180340 | 61 | 33 | 13.0 | 18.0 | 0.00 | 0.00 | 0.00 | 71 | 1028.1 |
| 20260505175838 | 61 | 30 | 13.0 | 18.0 | 0.00 | 0.00 | 0.00 | 70 | 1028.0 |
| 20260505175333 | 62 | 30 | 11.0 | 16.0 | 0.00 | 0.00 | 0.00 | 70 | 1027.9 |
| 20260505175159 | 62 | 20 | 9.0 | 17.0 | 0.00 | 0.00 | 0.00 | 71 | 1027.9 |
| 20260505174332 | 62 | 14 | 12.0 | 17.0 | 0.00 | 0.00 | 0.00 | 70 | 1027.8 |
| 20260505173833 | 62 | 51 | 10.0 | 18.0 | 0.00 | 0.00 | 0.00 | 69 | 1027.8 |
| 20260505173334 | 62 | 20 | 11.0 | 18.0 | 0.00 | 0.00 | 0.00 | 67 | 1027.6 |
| 20260505172836 | 62 | 62 | 13.0 | 17.0 | 0.00 | 0.00 | 0.00 | 65 | 1027.5 |
| 20260505172332 | 62 | 79 | 12.0 | 17.0 | 0.00 | 0.00 | 0.00 | 68 | 1027.7 |
| 20260505171833 | 62 | 30 | 10.0 | 18.0 | 0.00 | 0.00 | 0.00 | 70 | 1027.6 |
| 20260505171332 | 62 | 46 | 11.0 | 18.0 | 0.00 | 0.00 | 0.00 | 70 | 1027.7 |
| 20260505170834 | 62 | 54 | 11.0 | 17.0 | 0.00 | 0.00 | 0.00 | 69 | 1027.6 |
| 20260505170336 | 62 | 33 | 13.0 | 18.0 | 0.00 | 0.00 | 0.00 | 65 | 1027.7 |
| 20260505170221 | 62 | 57 | 13.0 | 18.0 | 0.00 | 0.00 | 0.00 | 64 | 1027.7 |
| 20260505165334 | 62 | 50 | 9.0 | 15.0 | 0.00 | 0.00 | 0.00 | 64 | 1027.7 |
| 20260505164832 | 62 | 67 | 10.0 | 15.0 | 0.00 | 0.00 | 0.00 | 65 | 1027.6 |
| 20260505164655 | 62 | 51 | 10.0 | 17.0 | 0.00 | 0.00 | 0.00 | 64 | 1027.6 |
| 20260505163828 | 62 | 64 | 13.0 | 17.0 | 0.00 | 0.00 | 0.00 | 63 | 1027.5 |
| 20260505163329 | 62 | 61 | 12.0 | 17.0 | 0.00 | 0.00 | 0.00 | 64 | 1027.6 |
| 20260505162827 | 62 | 30 | 12.0 | 17.0 | 0.00 | 0.00 | 0.00 | 63 | 1027.7 |
| 20260505162324 | 62 | 43 | 11.0 | 18.0 | 0.00 | 0.00 | 0.00 | 63 | 1027.8 |
| 20260505161825 | 62 | 60 | 13.0 | 18.0 | 0.00 | 0.00 | 0.00 | 64 | 1027.7 |
| 20260505161323 | 63 | 30 | 11.0 | 17.0 | 0.00 | 0.00 | 0.00 | 66 | 1027.8 |
| 20260505160822 | 62 | 33 | 9.0 | 18.0 | 0.00 | 0.00 | 0.00 | 67 | 1028.0 |
| 20260505160321 | 62 | 30 | 12.0 | 18.0 | 0.00 | 0.00 | 0.00 | 65 | 1028.0 |
| 20260505153308 | 62 | 31 | 14.0 | 21.0 | 0.00 | 0.00 | 0.00 | 69 | 1028.0 |
| 20260505152807 | 62 | 67 | 13.0 | 21.0 | 0.00 | 0.00 | 0.00 | 70 | 1027.9 |
| 20260505152307 | 62 | 82 | 13.0 | 18.0 | 0.00 | 0.00 | 0.00 | 70 | 1028.0 |
| 20260505151808 | 62 | 84 | 13.0 | 18.0 | 0.00 | 0.00 | 0.00 | 71 | 1028.1 |
| 20260505151306 | 62 | 67 | 14.0 | 19.0 | 0.00 | 0.00 | 0.00 | 70 | 1028.0 |
| 20260505150805 | 62 | 30 | 14.0 | 20.0 | 0.00 | 0.00 | 0.00 | 69 | 1028.0 |
| 20260505150304 | 62 | 54 | 15.0 | 22.0 | 0.00 | 0.00 | 0.00 | 70 | 1027.9 |
| 20260505140617 | 62 | 40 | 14.0 | 19.0 | 0.00 | 0.00 | 0.00 | 70 | 1027.9 |
| 20260505140131 | 62 | 53 | 13.0 | 20.0 | 0.00 | 0.00 | 0.00 | 70 | 1027.8 |
| 20260505130235 | 62 | 60 | 14.0 | 19.0 | 0.00 | 0.00 | 0.00 | 73 | 1028.2 |
| 20260505124734 | 61 | 40 | 12.0 | 20.0 | 0.00 | 0.00 | 0.00 | 74 | 1028.1 |
| 20260505124235 | 61 | 54 | 15.0 | 20.0 | 0.00 | 0.00 | 0.00 | 73 | 1028.1 |
| 20260505123736 | 61 | 30 | 11.0 | 21.0 | 0.00 | 0.00 | 0.00 | 74 | 1028.3 |
| 20260505123234 | 61 | 65 | 12.0 | 21.0 | 0.00 | 0.00 | 0.00 | 74 | 1028.3 |
| 20260505122728 | 62 | 53 | 12.0 | 23.0 | 0.00 | 0.00 | 0.00 | 74 | 1028.4 |
| 20260505122230 | 61 | 69 | 11.0 | 23.0 | 0.00 | 0.00 | 0.00 | 72 | 1028.4 |
| 20260505121728 | 61 | 38 | 15.0 | 20.0 | 0.00 | 0.00 | 0.00 | 72 | 1028.4 |
| 20260505121228 | 61 | 25 | 13.0 | 21.0 | 0.00 | 0.00 | 0.00 | 73 | 1028.4 |
| 20260505120724 | 61 | 61 | 15.0 | 21.0 | 0.00 | 0.00 | 0.00 | 72 | 1028.3 |
| 20260505120223 | 61 | 72 | 14.0 | 26.0 | 0.00 | 0.00 | 0.00 | 74 | 1028.3 |
| 20260505115728 | 61 | 60 | 15.0 | 26.0 | 0.00 | 0.00 | 0.00 | 74 | 1028.3 |
| 20260505115225 | 61 | 50 | 16.0 | 22.0 | 0.00 | 0.00 | 0.00 | 74 | 1028.3 |
| 20260505114721 | 61 | 78 | 13.0 | 20.0 | 0.00 | 0.00 | 0.00 | 74 | 1028.2 |
| 20260505114333 | 61 | 60 | 13.0 | 20.0 | 0.00 | 0.00 | 0.00 | 75 | 1028.2 |
| 20260505113217 | 62 | 60 | 8.0 | 18.0 | 0.00 | 0.00 | 0.00 | 75 | 1028.3 |
| 20260505112714 | 61 | 58 | 9.0 | 20.0 | 0.00 | 0.00 | 0.00 | 74 | 1028.3 |
| 20260505112222 | 61 | 33 | 11.0 | 21.0 | 0.00 | 0.00 | 0.00 | 75 | 1028.2 |
| 20260505111711 | 61 | 53 | 15.0 | 21.0 | 0.00 | 0.00 | 0.00 | 74 | 1028.4 |
| 20260505111544 | 62 | 46 | 9.0 | 16.0 | 0.00 | 0.00 | 0.00 | 73 | 1028.2 |
| 20260505110707 | 62 | 30 | 13.0 | 16.0 | 0.00 | 0.00 | 0.00 | 72 | 1028.1 |
| 20260505110206 | 61 | 25 | 9.0 | 15.0 | 0.00 | 0.00 | 0.00 | 71 | 1028.0 |
| 20260505102209 | 60 | 54 | 11.0 | 18.0 | 0.00 | 0.00 | 0.00 | 69 | 1028.0 |
| 20260505101706 | 60 | 30 | 11.0 | 18.0 | 0.00 | 0.00 | 0.00 | 69 | 1027.9 |
| 20260505101204 | 60 | 50 | 14.0 | 17.0 | 0.00 | 0.00 | 0.00 | 69 | 1027.7 |
| 20260505100706 | 60 | 60 | 11.0 | 21.0 | 0.00 | 0.00 | 0.00 | 70 | 1027.7 |
| 20260505100203 | 60 | 60 | 14.0 | 21.0 | 0.00 | 0.00 | 0.00 | 70 | 1027.7 |
| 20260505095702 | 60 | 69 | 11.0 | 17.0 | 0.00 | 0.00 | 0.00 | 72 | 1027.6 |
| 20260505095148 | 60 | 58 | 13.0 | 17.0 | 0.00 | 0.00 | 0.00 | 72 | 1027.7 |
| 20260505094648 | 60 | 71 | 11.0 | 17.0 | 0.00 | 0.00 | 0.00 | 72 | 1027.8 |
| 20260505094147 | 60 | 65 | 11.0 | 18.0 | 0.00 | 0.00 | 0.00 | 72 | 1027.9 |
| 20260505093949 | 60 | 69 | 13.0 | 18.0 | 0.00 | 0.00 | 0.00 | 72 | 1027.8 |
| 20260505093146 | 60 | 65 | 11.0 | 16.0 | 0.00 | 0.00 | 0.00 | 72 | 1027.9 |
| 20260505092647 | 60 | 61 | 12.0 | 15.0 | 0.00 | 0.00 | 0.00 | 73 | 1027.9 |
| 20260505092142 | 60 | 40 | 11.0 | 19.0 | 0.00 | 0.00 | 0.00 | 74 | 1027.9 |
| 20260505091641 | 60 | 61 | 12.0 | 19.0 | 0.00 | 0.00 | 0.00 | 74 | 1027.9 |
| 20260505091138 | 60 | 54 | 11.0 | 18.0 | 0.00 | 0.00 | 0.00 | 74 | 1027.7 |
| 20260505090958 | 60 | 57 | 9.0 | 12.0 | 0.00 | 0.00 | 0.00 | 75 | 1027.8 |
| 20260505090241 | 60 | 51 | 6.0 | 9.0 | 0.00 | 0.00 | 0.00 | 75 | 1027.8 |
| 20260505085134 | 59 | 37 | 7.0 | 12.0 | 0.00 | 0.00 | 0.00 | 75 | 1027.7 |
| 20260505084635 | 59 | 30 | 8.0 | 17.0 | 0.00 | 0.00 | 0.00 | 75 | 1027.7 |
| 20260505084134 | 59 | 44 | 9.0 | 17.0 | 0.00 | 0.00 | 0.00 | 75 | 1027.8 |
| 20260505083637 | 60 | 41 | 7.0 | 15.0 | 0.00 | 0.00 | 0.00 | 75 | 1027.8 |
| 20260505083136 | 60 | 28 | 11.0 | 14.0 | 0.00 | 0.00 | 0.00 | 74 | 1027.7 |
| 20260505082636 | 59 | 40 | 10.0 | 13.0 | 0.00 | 0.00 | 0.00 | 75 | 1027.6 |
| 20260505082136 | 59 | 31 | 9.0 | 16.0 | 0.00 | 0.00 | 0.00 | 75 | 1027.5 |
| 20260505081634 | 59 | 30 | 10.0 | 16.0 | 0.00 | 0.00 | 0.00 | 75 | 1027.5 |
| 20260505081133 | 59 | 36 | 8.0 | 14.0 | 0.00 | 0.00 | 0.00 | 76 | 1027.6 |
| 20260505080633 | 58 | 40 | 9.0 | 14.0 | 0.00 | 0.00 | 0.00 | 76 | 1027.5 |
| 20260505080451 | 58 | 37 | 7.0 | 17.0 | 0.00 | 0.00 | 0.00 | 77 | 1027.4 |
| 20260505075633 | 58 | 37 | 9.0 | 17.0 | 0.00 | 0.00 | 0.00 | 77 | 1027.3 |
| 20260505075133 | 58 | 51 | 8.0 | 14.0 | 0.00 | 0.00 | 0.00 | 78 | 1027.3 |
| 20260505074635 | 58 | 43 | 10.0 | 14.0 | 0.00 | 0.00 | 0.00 | 78 | 1027.3 |
| 20260505074128 | 58 | 30 | 11.0 | 15.0 | 0.00 | 0.00 | 0.00 | 79 | 1027.4 |
| 20260505073629 | 58 | 51 | 11.0 | 15.0 | 0.00 | 0.00 | 0.00 | 79 | 1027.3 |
| 20260505073122 | 58 | 65 | 9.0 | 15.0 | 0.00 | 0.00 | 0.00 | 79 | 1027.4 |
| 20260505072618 | 58 | 30 | 6.0 | 15.0 | 0.00 | 0.00 | 0.00 | 78 | 1027.3 |
| 20260505072442 | 58 | 41 | 10.0 | 17.0 | 0.00 | 0.00 | 0.00 | 78 | 1027.2 |
| 20260505071607 | 58 | 44 | 12.0 | 17.0 | 0.00 | 0.00 | 0.00 | 78 | 1027.2 |
| 20260505071205 | 58 | 37 | 9.0 | 13.0 | 0.00 | 0.00 | 0.00 | 79 | 1027.2 |
| 20260505070111 | 58 | 46 | 8.0 | 11.0 | 0.00 | 0.00 | 0.00 | 79 | 1027.2 |